When you browse on this site, cookies collect data to enhance your experience and personalize the content and advertising you see.
Visit our Privacy Policy to learn more. By continuing to use the site, you agree to this use of cookies and data.
  • Em Portugal
  • Lista de países
  • Para 7 dias
  • Temperatura da água
  • Mapas de satélite
  • Mapa do tempo
  • Widgets de tempo
  • user-avatar
    Iniciar Sessão

    Previsão horária em Lankaran

    Hoje, 17 Janeiro, Quinta-feira

    Tempo Temperatura Precipitação Vento Pressão Humidade
    00:00 +3°C° 0 mm 3 m/s 624 mmHg 64%
    01:00 +2°C° 0 mm 3 m/s 624 mmHg 68%
    02:00 +2°C° 0 mm 3 m/s 624 mmHg 72%
    03:00 +1°C° 0 mm 3 m/s 624 mmHg 76%
    04:00 +1°C° 0.1 mm 3 m/s 623 mmHg 81%
    05:00 0°C° 0.1 mm 3 m/s 623 mmHg 86%
    06:00 -1°C° 0.1 mm 3 m/s 623 mmHg 91%
    07:00 -1°C° 0.1 mm 3 m/s 623 mmHg 91%
    08:00 -1°C° 0.1 mm 3 m/s 624 mmHg 90%
    09:00 -1°C° 0.1 mm 3 m/s 624 mmHg 89%
    10:00 -2°C° 0.3 mm 4 m/s 624 mmHg 89%
    11:00 -3°C° 0.3 mm 4 m/s 624 mmHg 88%
    12:00 -3°C° 0.3 mm 4 m/s 624 mmHg 87%
    13:00 -3°C° 0.4 mm 4 m/s 624 mmHg 88%
    14:00 -4°C° 0.4 mm 4 m/s 624 mmHg 88%
    15:00 -4°C° 0.4 mm 4 m/s 623 mmHg 89%
    16:00 -5°C° 0.2 mm 4 m/s 624 mmHg 89%
    17:00 -5°C° 0.2 mm 4 m/s 625 mmHg 89%
    18:00 -5°C° 0.2 mm 4 m/s 625 mmHg 89%
    19:00 -7°C° 0.4 mm 4 m/s 626 mmHg 90%
    20:00 -7°C° 0.4 mm 4 m/s 626 mmHg 90%
    21:00 -7°C° 0.4 mm 4 m/s 627 mmHg 90%
    22:00 -7°C° 0.7 mm 4 m/s 627 mmHg 89%
    23:00 -7°C° 0.7 mm 3 m/s 628 mmHg 89%

    Amanhã, 18 Janeiro, Sexta-feira

    Tempo Temperatura Precipitação Vento Pressão Humidade
    00:00 -7°C° 0.7 mm 3 m/s 628 mmHg 88%
    01:00 -7°C° 0.4 mm 3 m/s 629 mmHg 88%
    02:00 -7°C° 0.4 mm 3 m/s 629 mmHg 88%
    03:00 -7°C° 0.4 mm 3 m/s 629 mmHg 88%
    04:00 -7°C° 0.6 mm 3 m/s 630 mmHg 89%
    05:00 -7°C° 0.6 mm 3 m/s 630 mmHg 89%
    06:00 -7°C° 0.6 mm 3 m/s 631 mmHg 89%
    07:00 -6°C° 0.7 mm 2 m/s 631 mmHg 89%
    08:00 -5°C° 0.7 mm 2 m/s 632 mmHg 88%
    09:00 -5°C° 0.7 mm 2 m/s 632 mmHg 87%
    10:00 -5°C° 0.5 mm 2 m/s 633 mmHg 85%
    11:00 -5°C° 0.5 mm 2 m/s 633 mmHg 83%
    12:00 -4°C° 0.5 mm 2 m/s 633 mmHg 80%
    13:00 -2°C° 0.3 mm 1 m/s 633 mmHg 79%
    14:00 -2°C° 0.3 mm 1 m/s 633 mmHg 77%
    15:00 -2°C° 0.3 mm 1 m/s 633 mmHg 75%
    16:00 -2°C° 0.2 mm 1 m/s 633 mmHg 77%
    17:00 -3°C° 0.2 mm 1 m/s 633 mmHg 79%
    18:00 -4°C° 0.2 mm 1 m/s 633 mmHg 81%
    19:00 -4°C° 0.1 mm 1 m/s 633 mmHg 79%
    20:00 -4°C° 0.1 mm 1 m/s 633 mmHg 77%
    21:00 -4°C° 0.1 mm 1 m/s 633 mmHg 75%
    22:00 -4°C° 0 mm 1 m/s 633 mmHg 72%
    23:00 -4°C° 0 mm 1 m/s 633 mmHg 68%

    Depois de amanhã, 19 Janeiro, Sábado

    Tempo Temperatura Precipitação Vento Pressão Humidade
    00:00 -7°C° 0 mm 2 m/s 633 mmHg 65%
    01:00 -7°C° 0 mm 2 m/s 633 mmHg 62%
    02:00 -7°C° 0 mm 2 m/s 633 mmHg 59%
    03:00 -8°C° 0 mm 2 m/s 632 mmHg 56%
    04:00 -8°C° 0 mm 2 m/s 632 mmHg 56%
    05:00 -8°C° 0 mm 2 m/s 632 mmHg 56%
    06:00 -8°C° 0 mm 2 m/s 632 mmHg 56%
    07:00 -7°C° 0 mm 2 m/s 633 mmHg 56%
    08:00 -5°C° 0 mm 2 m/s 633 mmHg 56%
    09:00 -4°C° 0 mm 2 m/s 634 mmHg 56%
    10:00 -3°C° 0 mm 2 m/s 634 mmHg 54%
    11:00 0°C° 0 mm 1 m/s 634 mmHg 51%
    12:00 +1°C° 0 mm 1 m/s 634 mmHg 49%
    13:00 +1°C° 0 mm 1 m/s 633 mmHg 50%
    14:00 +1°C° 0 mm 1 m/s 633 mmHg 52%
    15:00 +1°C° 0 mm 1 m/s 633 mmHg 53%
    16:00 -1°C° 0 mm 1 m/s 633 mmHg 55%
    17:00 -4°C° 0 mm 2 m/s 632 mmHg 57%
    18:00 -5°C° 0 mm 2 m/s 632 mmHg 59%
    19:00 -5°C° 0 mm 2 m/s 632 mmHg 57%
    20:00 -6°C° 0 mm 2 m/s 632 mmHg 56%
    21:00 -7°C° 0 mm 3 m/s 632 mmHg 55%
    22:00 -7°C° 0 mm 3 m/s 632 mmHg 53%
    23:00 -7°C° 0 mm 3 m/s 632 mmHg 52%

    20 Janeiro, Domingo

    Tempo Temperatura Precipitação Vento Pressão Humidade
    00:00 -7°C° 0 mm 3 m/s 632 mmHg 51%
    01:00 -7°C° 0 mm 3 m/s 632 mmHg 50%
    02:00 -7°C° 0 mm 3 m/s 632 mmHg 50%
    03:00 -8°C° 0 mm 3 m/s 632 mmHg 49%
    04:00 -8°C° 0 mm 3 m/s 632 mmHg 48%
    05:00 -8°C° 0 mm 3 m/s 632 mmHg 47%
    06:00 -8°C° 0 mm 3 m/s 632 mmHg 46%
    07:00 -7°C° 0 mm 3 m/s 633 mmHg 46%
    08:00 -5°C° 0 mm 2 m/s 634 mmHg 46%
    09:00 -4°C° 0 mm 2 m/s 634 mmHg 45%
    10:00 -3°C° 0 mm 2 m/s 635 mmHg 44%
    11:00 0°C° 0 mm 1 m/s 635 mmHg 43%
    12:00 +2°C° 0 mm 1 m/s 635 mmHg 42%
    13:00 +1°C° 0 mm 1 m/s 635 mmHg 44%
    14:00 +1°C° 0 mm 1 m/s 634 mmHg 47%
    15:00 +1°C° 0 mm 1 m/s 634 mmHg 49%
    16:00 0°C° 0 mm 1 m/s 634 mmHg 53%
    17:00 -2°C° 0 mm 1 m/s 633 mmHg 56%
    18:00 -3°C° 0 mm 1 m/s 633 mmHg 59%
    19:00 -3°C° 0 mm 1 m/s 633 mmHg 55%
    20:00 -3°C° 0 mm 1 m/s 634 mmHg 52%
    21:00 -6°C° 0 mm 2 m/s 634 mmHg 48%
    22:00 -6°C° 0 mm 2 m/s 634 mmHg 45%
    23:00 -6°C° 0 mm 2 m/s 633 mmHg 42%

    21 Janeiro, Segunda-feira

    Tempo Temperatura Precipitação Vento Pressão Humidade
    00:00 -6°C° 0 mm 2 m/s 633 mmHg 39%
    01:00 -6°C° 0 mm 2 m/s 633 mmHg 37%
    02:00 -6°C° 0 mm 2 m/s 633 mmHg 36%
    03:00 -7°C° 0 mm 2 m/s 633 mmHg 34%
    04:00 -7°C° 0 mm 2 m/s 633 mmHg 34%
    05:00 -7°C° 0 mm 2 m/s 633 mmHg 33%
    06:00 -7°C° 0 mm 2 m/s 633 mmHg 33%
    07:00 -4°C° 0 mm 1 m/s 633 mmHg 35%
    08:00 -3°C° 0 mm 1 m/s 634 mmHg 37%
    09:00 -2°C° 0 mm 1 m/s 635 mmHg 39%
    10:00 -1°C° 0 mm 1 m/s 634 mmHg 41%
    11:00 0°C° 0 mm 1 m/s 634 mmHg 42%
    12:00 +1°C° 0 mm 1 m/s 634 mmHg 44%
    13:00 +1°C° 0 mm 1 m/s 634 mmHg 47%
    14:00 +1°C° 0 mm 1 m/s 633 mmHg 51%
    15:00 +1°C° 0 mm 1 m/s 633 mmHg 54%
    16:00 -1°C° 0 mm 1 m/s 633 mmHg 57%
    17:00 -2°C° 0 mm 1 m/s 632 mmHg 61%
    18:00 -3°C° 0 mm 1 m/s 632 mmHg 64%
    19:00 -3°C° 0 mm 1 m/s 632 mmHg 60%
    20:00 -5°C° 0 mm 2 m/s 632 mmHg 55%
    21:00 -5°C° 0 mm 2 m/s 632 mmHg 51%
    22:00 -5°C° 0 mm 2 m/s 631 mmHg 48%
    23:00 -5°C° 0 mm 2 m/s 631 mmHg 45%

    22 Janeiro, Terça-feira

    Tempo Temperatura Precipitação Vento Pressão Humidade
    00:00 -6°C° 0 mm 2 m/s 631 mmHg 41%
    01:00 -6°C° 0 mm 2 m/s 631 mmHg 41%
    02:00 -6°C° 0 mm 2 m/s 631 mmHg 40%
    03:00 -7°C° 0 mm 3 m/s 630 mmHg 39%
    04:00 -7°C° 0 mm 3 m/s 630 mmHg 40%
    05:00 -8°C° 0 mm 3 m/s 630 mmHg 40%
    06:00 -8°C° 0 mm 3 m/s 630 mmHg 41%
    07:00 -7°C° 0 mm 3 m/s 631 mmHg 41%
    08:00 -6°C° 0 mm 3 m/s 632 mmHg 41%
    09:00 -3°C° 0 mm 2 m/s 632 mmHg 41%
    10:00 -2°C° 0 mm 2 m/s 632 mmHg 42%
    11:00 -1°C° 0 mm 2 m/s 633 mmHg 43%
    12:00 +1°C° 0 mm 2 m/s 633 mmHg 44%
    13:00 +2°C° 0 mm 1 m/s 633 mmHg 45%
    14:00 +2°C° 0 mm 1 m/s 633 mmHg 45%
    15:00 +2°C° 0 mm 1 m/s 633 mmHg 46%
    16:00 +1°C° 0 mm 1 m/s 633 mmHg 47%
    17:00 0°C° 0 mm 1 m/s 633 mmHg 48%
    18:00 -4°C° 0 mm 2 m/s 633 mmHg 49%
    19:00 -4°C° 0 mm 2 m/s 633 mmHg 46%
    20:00 -4°C° 0 mm 2 m/s 633 mmHg 43%
    21:00 -5°C° 0 mm 2 m/s 633 mmHg 40%
    22:00 -5°C° 0 mm 2 m/s 633 mmHg 39%
    23:00 -5°C° 0 mm 2 m/s 633 mmHg 38%
    Mostrar mais